Find Starlink 30518

NORAD ID: 58029 Int'l Des: 2023-156 Owner: SPXS Country: US Constellation: starlink operational
LEOCIRCULAR

当前视图

正在加载3D地球...

About Starlink 30518

Starlink 30518 (NORAD 58029) is a starlink constellation satellite (v2 mini) launched Oct 9, 2023 by SPXS of US. It operates in LEO, CIRCULAR orbit with a mass of 730.00 kg.

关于 Starlink 30518

正在加载描述...

即将过境

Passes for default location (London). Set your location on the main map for personalized predictions.

高度历史

Loading altitude history...

两行轨道根数

1 58029U 23156B 26170.16414186 .00000280 00000-0 21595-4 0 9994
2 58029 53.1627 326.9416 0001526 85.9853 274.1322 15.30196214151856
Epoch: Jun 19, 2026 • Age: 20 hours

当前状态

高度 475.3 km
速度 7.63 km/s
星下点 7.16°N, 122.83°W
发射日期 Oct 9, 2023
运行时间 2.6 years
类型 internet

技术详情

分类 Payload
质量 730.00 kg
干质量 700.00 kg
总质量 730.00 kg
长度 0.30 m
直径 4.10 m
跨度 29.00 m
形状 Box + pan
制造商 SPXS
平台类型 Starlink V2M
阶段状态 In Orbit
所有者/国家 SPXS/US

Most Searched